Weather History for Shemya, AK

Change the Weather History Date:

Thursday, November 22, 2012

  Actual Average Record
Temperature  
Mean Temperature 41 °F -  
Max Temperature 43 °F 38 °F 46 °F (1970)
Min Temperature 39 °F 32 °F 15 °F (1972)
Degree Days  
Heating Degree Days 24    
Moisture  
Dew Point 41 °F    
Average Humidity 98    
Maximum Humidity 100    
Minimum Humidity 57    
Precipitation  
Precipitation 0.00 in - - ()
Sea Level Pressure  
Sea Level Pressure 29.63 in    
Wind  
Wind Speed 24 mph (East)    
Max Wind Speed 32 mph    
Max Gust Speed 39 mph    
Visibility 6 miles    
Events Rain    
Averages and records for this station are not official NWS values.
T = Trace of Precipitation, MM = Missing Value Source: NWS Daily Summary

Daily Weather History Graph

Daily Weather History Graph

Search for Another Location

Airport:

Trip Planner

Search our weather history database for the weather conditions in past years. The results will help you decide how hot, cold, wet, or windy it might be!

Date:

Astronomy

Nov. 21, 2012 Rise Set
Actual Time 9:58 AM HAST 6:20 PM HAST
Civil Twilight 9:18 AM HAST 6:59 PM HAST
Nautical Twilight 8:36 AM HAST 7:42 PM HAST
Astronomical Twilight 7:55 AM HAST 8:23 PM HAST
Moon 3:47 PM HAST (11/22) 3:57 AM HAST (11/22)
Length of Visible Light 9h 41m
Length of Day
8h 22m
Waxing Gibbous, 73% of the Moon is Illuminated
Nov 22
Waxing Gibbous
Nov 28
Full
Dec 6
Last Quarter
Dec 12
New
Dec 19
First Quarter

Hourly Weather History & Observations

Time (HAST) Temp. Windchill Dew Point Humidity Pressure Visibility Wind Dir Wind Speed Gust Speed Precip Events Conditions
2:56 AM 43.0 °F 33.1 °F 43.0 °F 100% 29.76 in 3.0 mi ESE 26.5 mph - N/A   Overcast
3:56 AM 42.1 °F 32.3 °F 42.1 °F 100% 29.76 in 5.0 mi SE 24.2 mph - N/A   Overcast
4:56 AM 42.1 °F 33.1 °F 42.1 °F 100% 29.75 in 7.0 mi SE 20.7 mph - N/A   Overcast
5:56 AM 42.1 °F 33.6 °F 42.1 °F 100% 29.74 in 6.0 mi SE 18.4 mph - N/A   Overcast
6:40 AM 42.8 °F 34.3 °F 42.8 °F 100% 29.73 in 6.2 mi SE 19.6 mph - N/A   Overcast
6:56 AM 42.1 °F 33.3 °F 42.1 °F 100% 29.73 in 7.0 mi SE 19.6 mph - N/A   Overcast
7:11 AM 42.8 °F 34.3 °F 42.8 °F 100% 29.72 in 4.0 mi SE 19.6 mph - N/A Rain Light Rain
7:22 AM 42.8 °F 34.5 °F 42.8 °F 100% 29.72 in 1.8 mi ESE 18.4 mph - N/A Rain Light Rain
7:28 AM 42.8 °F 35.8 °F 42.8 °F 100% 29.72 in 1.2 mi ESE 13.8 mph - N/A   Overcast
7:40 AM 42.8 °F 34.5 °F 42.8 °F 100% 29.71 in 1.2 mi ESE 18.4 mph - N/A Rain Light Rain
7:49 AM 42.8 °F 34.5 °F 42.8 °F 100% 29.71 in 1.5 mi ESE 18.4 mph - N/A Rain Light Rain
7:56 AM 42.1 °F 33.6 °F 42.1 °F 100% 29.71 in 1.2 mi ESE 18.4 mph - N/A Rain Light Rain
8:13 AM 42.8 °F 34.0 °F 42.8 °F 100% 29.71 in 1.0 mi ESE 20.7 mph - N/A   Mist
8:31 AM 42.8 °F 33.8 °F 42.8 °F 100% 29.70 in 1.5 mi ESE 21.9 mph - N/A Rain Light Rain
8:44 AM 42.8 °F 33.5 °F 42.8 °F 100% 29.70 in - ESE 23.0 mph - N/A Rain Light Rain
8:56 AM 42.1 °F 32.6 °F 42.1 °F 100% 29.70 in 3.0 mi ESE 23.0 mph - N/A   Overcast
9:56 AM 42.1 °F 32.1 °F 42.1 °F 100% 29.70 in 4.0 mi ESE 25.3 mph - N/A   Overcast
10:32 AM 42.8 °F 33.3 °F 42.8 °F 100% 29.69 in 2.5 mi East 24.2 mph - N/A Rain Light Rain
10:51 AM 42.8 °F 33.3 °F 42.8 °F 100% 29.69 in - East 24.2 mph - N/A Rain Light Rain
10:56 AM 42.1 °F 32.3 °F 42.1 °F 100% 29.69 in 3.0 mi East 24.2 mph - N/A Rain Light Rain
11:00 AM 42.8 °F 33.5 °F 42.8 °F 100% 29.69 in 2.5 mi East 23.0 mph - N/A Rain Light Rain
11:08 AM 42.8 °F 33.5 °F 42.8 °F 100% 29.69 in - East 23.0 mph - N/A Rain Light Rain
11:56 AM 42.1 °F 31.9 °F - N/A% 29.68 in 3.0 mi East 26.5 mph 31.1 mph N/A Rain Light Rain
12:56 PM 42.1 °F 31.5 °F - N/A% 29.65 in 4.0 mi East 28.8 mph 33.4 mph N/A Rain Light Rain
1:56 PM 42.1 °F 31.5 °F - N/A% 29.62 in 5.0 mi East 28.8 mph 34.5 mph N/A Rain Light Rain
2:41 PM 42.8 °F 31.9 °F - N/A% 29.60 in - East 32.2 mph 36.8 mph N/A   Overcast
2:56 PM 42.1 °F 31.3 °F - N/A% 29.60 in 5.0 mi East 29.9 mph 34.5 mph N/A   Haze
3:10 PM 42.8 °F 32.7 °F 42.8 °F 100% 29.58 in 5.0 mi East 27.6 mph 34.5 mph N/A Rain Light Rain
3:56 PM 41.0 °F 29.8 °F 41.0 °F 100% 29.57 in 6.0 mi East 29.9 mph 36.8 mph N/A   Overcast
4:32 PM 41.0 °F 29.7 °F 41.0 °F 100% 29.55 in 6.2 mi East 31.1 mph 36.8 mph N/A Rain Light Rain
4:56 PM 41.0 °F 29.8 °F 39.9 °F 96% 29.55 in 9.0 mi East 29.9 mph 36.8 mph N/A   Overcast
5:53 PM 41.0 °F 29.7 °F 41.0 °F 100% 29.54 in 10.0 mi East 31.1 mph 39.1 mph N/A Rain Light Rain
5:56 PM 41.0 °F 29.7 °F 39.9 °F 96% 29.55 in 10.0 mi East 31.1 mph 39.1 mph N/A Rain Light Rain
6:56 PM 39.9 °F 28.2 °F 39.9 °F 100% 29.54 in 10.0 mi East 31.1 mph 34.5 mph N/A Rain Light Rain
7:11 PM 39.2 °F 27.2 °F 39.2 °F 100% 29.53 in 10.0 mi East 31.1 mph 36.8 mph N/A Rain Light Rain
7:56 PM 39.9 °F 28.0 °F - N/A% 29.53 in 10.0 mi East 32.2 mph 36.8 mph N/A Rain Light Rain
8:53 PM 41.0 °F 30.5 °F - N/A% 29.52 in 10.0 mi East 26.5 mph 33.4 mph N/A Rain Light Rain
8:56 PM 41.0 °F 30.2 °F - N/A% 29.53 in 10.0 mi East 27.6 mph 33.4 mph N/A Rain Light Rain
9:03 PM 41.0 °F 30.2 °F - N/A% 29.52 in 10.0 mi East 27.6 mph 33.4 mph N/A Rain Light Rain
9:56 PM 39.9 °F 28.6 °F 39.9 °F 100% 29.52 in 10.0 mi East 28.8 mph 35.7 mph N/A Rain Light Rain
10:27 PM 39.2 °F 28.7 °F 39.2 °F 100% 29.53 in 10.0 mi East 23.0 mph 32.2 mph N/A Rain Light Rain
10:41 PM 39.2 °F 28.3 °F 39.2 °F 100% 29.53 in 10.0 mi East 25.3 mph 32.2 mph N/A Rain Light Rain
10:56 PM 39.9 °F 29.5 °F 39.9 °F 100% 29.53 in 10.0 mi ENE 24.2 mph 33.4 mph N/A Rain Light Rain
11:08 PM 39.2 °F 28.0 °F 39.2 °F 100% 29.53 in 10.0 mi East 26.5 mph 33.4 mph N/A Rain Light Rain
11:17 PM 39.2 °F 28.3 °F 39.2 °F 100% 29.53 in 10.0 mi East 25.3 mph - N/A Rain Light Rain
11:48 PM 39.2 °F 28.0 °F 39.2 °F 100% 29.54 in 10.0 mi East 26.5 mph - N/A Rain Light Rain
11:56 PM 39.9 °F 29.5 °F 39.0 °F 97% 29.55 in 10.0 mi East 24.2 mph - N/A Rain Light Rain